Location: *
(29.1167°S, 130.0000°E)
Time: 21:12:16
(UTC+00:00)

Cosmos 2322 - Pass Details

Date: 21 July 2019
Orbit: 840 x 855 km, 71.0° (Epoch: 18 August)

Event Time Altitude Azimuth Distance (km) Brightness Sun altitude
Rises 10:31:46 0° 198° (SSW) 3,431 7.0 -23.6°
Reaches altitude 10° 10:34:14 10° 196° (SSW) 2,487 6.2 -24.1°
Maximum altitude 10:39:57 77° 110° (ESE) 873 3.5 -25.4°
Enters shadow 10:41:37 47° 35° (NE) 1,105 4.1 -25.7°
